Valentine, NE

5:20 PM CDT on July 21, 2017 (GMT -0500)
Miller Field

Weather History for KVTN - July, 2013

Change the Weather History Date:

Monday, July 8, 2013

  Actual Average Record
Temperature  
Mean Temperature 77 °F 74 °F  
Max Temperature 91 °F 88 °F 108 °F (1989)
Min Temperature 63 °F 60 °F 42 °F (1952)
Degree Days  
Heating Degree Days 0 0  
Month to date heating degree days 0 2  
Since 1 June heating degree days 54 63  
Since 1 July heating degree days 0 2  
Cooling Degree Days 12 9  
Month to date cooling degree days 68 69  
Year to date cooling degree days 253 240  
Since 1 June cooling degree days 214 206  
Growing Degree Days 27 (Base 50)    
Moisture  
Dew Point 65 °F    
Average Humidity 74    
Maximum Humidity 100    
Minimum Humidity 47    
Precipitation  
Precipitation 0.01 in 0.11 in 1.50 in (1926)
Month to date precipitation 0.13 0.87  
Year to date precipitation 11.98 11.59  
Snow  
Snow 0.00 in 0.00 in 0.00 in ()
Month to date snowfall 0.0 0.0  
Since 1 June snowfall 0.0 0.0  
Since 1 July snowfall 0.0 0.0  
Snow Depth 0.00 in    
Sea Level Pressure  
Sea Level Pressure 29.97 in    
Wind  
Wind Speed 7 mph (ESE)    
Max Wind Speed 26 mph    
Max Gust Speed 32 mph    
Visibility 7 miles    
Events Fog , Rain , Thunderstorm    
T = Trace of Precipitation, MM = Missing Value Source: NWS Daily Summary

Daily Weather History Graph

Daily Weather History Graph

Search for Another Location

Airport or City:

Trip Planner

Search our weather history database for the weather conditions in past years. The results will help you decide how hot, cold, wet, or windy it might be!

Date:

Astronomy

Jul. 08, 2013 Rise Set
Actual Time 6:11 AM CDT 9:22 PM CDT
Civil Twilight 5:37 AM CDT 9:56 PM CDT
Nautical Twilight 4:52 AM CDT 10:41 PM CDT
Astronomical Twilight 3:59 AM CDT 11:34 PM CDT
Moon 6:45 AM CDT (7/8) 9:22 PM CDT (7/8)
Length of Visible Light 16h 19m
Length of Day
15h 10m
New Moon, 0% of the Moon is Illuminated
Jul 8
New Moon
Jul 15
First Quarter
Jul 22
Full
Jul 29
Last Quarter
Aug 6
New

Hourly Weather History & Observations

Time (CDT) Temp. Heat Index Dew Point Humidity Pressure Visibility Wind Dir Wind Speed Gust Speed Precip Events Conditions
12:52 AM 66.9 °F - 64.0 °F 90% 29.99 in 10.0 mi Calm Calm - N/A   Clear
1:52 AM 64.9 °F - 64.0 °F 97% 29.97 in 10.0 mi Calm Calm - N/A   Partly Cloudy
2:52 AM 63.0 °F - 62.1 °F 97% 29.96 in 7.0 mi WNW 3.5 mph - N/A   Partly Cloudy
3:52 AM 64.0 °F - 63.0 °F 96% 29.95 in 6.0 mi Calm Calm - N/A   Scattered Clouds
4:52 AM 63.0 °F - 62.1 °F 97% 29.96 in 7.0 mi East 4.6 mph - N/A   Clear
5:15 AM 62.6 °F - 62.6 °F 100% 30.02 in 4.0 mi ENE 6.9 mph - N/A   Scattered Clouds
5:21 AM 62.6 °F - 62.6 °F 100% 30.02 in 2.5 mi NE 5.8 mph - N/A   Mostly Cloudy
5:25 AM 62.6 °F - 62.6 °F 100% 30.02 in 1.0 mi ENE 6.9 mph - N/A   Mist
5:32 AM 62.6 °F - 62.6 °F 100% 30.01 in 0.2 mi East 6.9 mph - N/A Fog Fog
5:52 AM 63.0 °F - 63.0 °F 100% 29.97 in 0.2 mi ESE 4.6 mph - N/A Fog Fog
6:52 AM 63.0 °F - 63.0 °F 100% 29.99 in 0.2 mi ESE 4.6 mph - N/A Fog Fog
7:52 AM 64.0 °F - 64.0 °F 100% 30.01 in 0.2 mi SW 3.5 mph - N/A Fog Fog
8:32 AM 64.4 °F - 64.4 °F 100% 30.06 in 1.2 mi South 3.5 mph - N/A   Overcast
8:39 AM 64.4 °F - 64.4 °F 100% 30.06 in 3.0 mi South 3.5 mph - N/A   Overcast
8:52 AM 66.0 °F - 64.9 °F 96% 30.01 in 3.0 mi Variable 3.5 mph - N/A   Overcast
9:34 AM 71.6 °F - 66.2 °F 83% 30.04 in 8.0 mi SSE 6.9 mph - N/A   Scattered Clouds
9:43 AM 71.6 °F - 66.2 °F 83% 30.04 in 10.0 mi SE 6.9 mph - N/A   Mostly Cloudy
9:52 AM 73.0 °F - 66.9 °F 81% 29.99 in 10.0 mi SE 8.1 mph - N/A   Partly Cloudy
10:52 AM 79.0 °F - 66.9 °F 66% 29.97 in 10.0 mi SE 10.4 mph - N/A   Clear
11:52 AM 80.1 °F 82.7 °F 68.0 °F 67% 29.98 in 10.0 mi SE 4.6 mph - N/A   Clear
12:52 PM 82.9 °F 85.8 °F 68.0 °F 60% 29.96 in 10.0 mi ESE 4.6 mph - N/A   Clear
1:52 PM 86.0 °F 89.4 °F 68.0 °F 55% 29.95 in 10.0 mi NE 5.8 mph - N/A   Clear
2:52 PM 88.0 °F 91.4 °F 68.0 °F 51% 29.94 in 10.0 mi Variable 5.8 mph - N/A   Clear
3:52 PM 90.0 °F 93.6 °F 68.0 °F 48% 29.93 in 10.0 mi East 9.2 mph - N/A   Scattered Clouds
4:52 PM 89.1 °F 91.3 °F 66.0 °F 46% 29.90 in 10.0 mi ESE 13.8 mph 17.3 mph N/A   Partly Cloudy
5:00 PM 89.6 °F 92.2 °F 66.2 °F 46% 29.96 in 10.0 mi ESE 13.8 mph 17.3 mph N/A Thunderstorm Partly Cloudy
5:15 PM 89.6 °F 92.2 °F 66.2 °F 46% 29.96 in 10.0 mi East 5.8 mph - N/A   Partly Cloudy
5:24 PM 87.8 °F 89.4 °F 64.4 °F 46% 29.97 in 10.0 mi Variable 3.5 mph - N/A Thunderstorm Scattered Clouds
5:52 PM 86.0 °F 89.4 °F 68.0 °F 55% 29.91 in 9.0 mi SE 3.5 mph - 0.00 in Rain , Thunderstorm Light Thunderstorms and Rain
6:52 PM 77.0 °F - 68.0 °F 74% 29.91 in 10.0 mi ESE 16.1 mph - 0.00 in Thunderstorm Thunderstorm
7:00 PM 77.0 °F - 68.0 °F 74% 29.95 in 10.0 mi ESE 15.0 mph - N/A Thunderstorm Partly Cloudy
7:21 PM 78.8 °F - 66.2 °F 65% 29.93 in 10.0 mi ESE 15.0 mph - N/A   Clear
7:52 PM 78.1 °F - 68.0 °F 71% 29.90 in 10.0 mi East 15.0 mph 21.9 mph N/A   Clear
8:52 PM 75.0 °F - 68.0 °F 79% 29.92 in 10.0 mi ESE 9.2 mph - N/A   Clear
9:52 PM 73.0 °F - 64.9 °F 76% 29.88 in 10.0 mi SE 10.4 mph - N/A   Clear
10:52 PM 73.0 °F - 63.0 °F 71% 29.90 in 10.0 mi South 5.8 mph - N/A   Clear
11:52 PM 73.0 °F - 64.9 °F 76% 29.89 in 10.0 mi SSW 19.6 mph 32.2 mph 0.00 in Rain Light Rain